sat.trackr.live / text

‹ back to catalog

FORMOSAT 7-5

NORAD 44358 · 2019-036V

PAYLOAD ACTIVE UNKNOWN

§ Identity

Operator
Country
ROC
Launch date
2019-06-25
Launch site
AFETR
Launch vehicle
Mass (kg)
RCS (m²)

External: N2YO · Heavens-Above · Gunter

§ Orbital elements

Epoch: 2026-05-25T01:32:40.430112Z

Period
96.23 min
Inclination
23.9991°
Eccentricity
0.0000130
Mean motion
14.96395538 rev/d
Perigee alt
578.0 km
Apogee alt
578.1 km
Semi-major
6,956.2 km
B*
1.6398e-4
RAAN
64.2524°
Arg perigee
246.7623°
Mean anomaly
113.2864°
Rev number
37,888

§ Raw data

FORMOSAT 7-51 44358U 19036V   26145.06435683  .00002205  00000+0  16398-3 0  99942 44358  23.9991  64.2524 0000130 246.7623 113.2864 14.96395538378888

JSON: /api/v1/satellites/44358 · /tle

For live sub-satellite position, see the globe view (requires WebGL).

§ Visibility from observer

Set your observer location to see the next 7 days of passes ≥ 10°. The values pass through the URL so the page stays shareable.

No JS? Fill the form by hand. The geolocation button needs JavaScript.

§ Radio — SatNOGS DB

ModeDescriptionDownlinkUplink
CW Downlink 400.900 MHz

1 transmitter · refreshed weekly from db.satnogs.org